3CAT-2

Last updated on Mon Mar 05 2018 00:19:52 GMT+0000 (Coordinated Universal Time)

1 41732U 16051B 18063.81240194 .00001214 00000-0 50253-4 0 9994 2 41732 97.3781 342.0659 0015511 75.0732 336.0101 15.25767477 86267
UTC large
Height (km)
Speed (km/s)
/
Latitude / Longitude
Inclination (degrees)
Orbital Period (minutes)
Azimuth
Elevation
Range (km)
Doppler Factor

Next 0 passes for location: London (51.5072 / 0.1276)

Sorry there are no passes over London.